Wind_Speed
2 2 2 2 3 3 2 2 2 1 1 2 3 3 3 3 3 2 2 2 2 1 1 1 2 2 2 2 2 2 3 3 3 4 4 4 4 4 4 5 6 6 6
2 2 1 1 2 2 2 2 2 1 1 2 3 3 3 3 3 3 3 2 2 2 1 1 1 1 1 1 2 2 2 3 3 3 3 3 3 4 4 5 5 6 6
2 1 1 1 2 2 3 3 2 2 3 3 4 4 4 4 4 4 3 2 2 2 2 1 1 1 1 1 1 2 2 3 3 3 3 3 4 4 4 4 5 6 6
2 1 0 1 2 3 3 3 3 3 3 3 4 4 4 4 4 4 3 3 2 2 2 1 1 0 0 1 1 2 2 3 2 2 2 3 4 4 4 4 5 5 6
3 1 0 2 3 4 4 4 4 4 4 4 4 5 4 4 4 4 4 3 3 2 2 2 1 0 0 1 1 1 2 2 2 2 3 3 3 3 4 4 5 5 6
4 2 1 2 3 4 5 5 5 5 5 5 4 5 4 4 4 4 4 3 3 3 3 2 1 1 1 1 1 1 1 1 1 2 3 3 3 3 3 4 4 5 5
5 3 2 3 4 4 5 6 6 6 6 5 4 4 4 4 4 4 4 4 3 3 3 2 1 1 1 1 1 1 1 1 1 2 2 2 3 3 3 4 4 4 5
6 4 3 4 5 6 6 6 6 6 6 5 5 5 5 4 4 4 4 4 4 3 3 2 1 1 1 1 1 0 1 1 1 2 2 2 3 3 4 4 4 4 4
7 6 4 4 5 6 6 6 7 7 6 6 5 5 5 4 3 3 4 4 4 3 3 2 1 1 1 1 1 1 1 1 1 1 2 3 3 4 4 4 4 4 4
8 6 5 4 5 5 6 6 7 7 7 6 6 6 5 4 4 4 4 4 3 3 3 2 1 1 1 1 1 1 1 1 1 1 2 3 3 4 4 4 4 4 4
8 7 5 4 4 6 6 6 7 8 8 7 7 7 6 5 5 4 4 4 3 3 3 2 1 1 1 0 1 1 1 2 2 1 2 2 3 4 4 4 4 4 4
9 8 6 5 5 5 7 7 8 9 9 9 8 8 7 6 5 5 4 4 3 3 2 2 1 1 1 1 1 1 2 2 2 2 2 2 3 3 3 3 4 4 4
10 9 8 7 6 6 7 8 9 9 9 9 9 9 8 7 6 5 5 4 4 3 2 2 1 1 1 1 1 2 2 2 2 1 1 1 2 3 3 3 3 3 3
11 10 9 8 6 6 7 8 9 9 9 10 10 10 9 8 6 6 6 5 4 3 3 2 2 1 1 1 1 2 1 2 2 1 1 1 2 3 3 3 3 3 3
11 10 8 8 6 6 7 8 9 10 10 10 10 10 9 8 7 7 6 5 4 3 2 2 2 1 1 2 1 1 1 2 2 1 2 2 3 3 4 3 3 3 4
13 11 9 7 6 6 7 7 9 10 10 10 10 9 8 8 8 7 7 6 4 3 3 2 2 1 2 2 2 2 1 2 1 1 2 2 3 3 4 4 4 3 4
14 12 10 8 7 6 6 7 8 10 10 10 10 9 9 8 8 8 7 6 5 4 3 3 3 2 2 3 3 2 1 2 1 1 1 2 2 2 3 4 4 4 4
14 12 10 7 6 5 5 6 7 9 10 10 10 10 10 9 9 9 8 7 6 5 4 4 3 3 3 3 3 2 2 1 1 1 1 1 1 2 3 4 4 5 5
14 11 7 4 4 5 5 5 8 9 10 11 11 11 10 10 10 10 9 8 7 6 5 5 4 3 3 3 3 3 2 1 1 0 0 0 1 2 2 2 3 4 4
12 10 6 4 3 4 4 5 7 9 10 11 12 11 11 11 11 10 9 8 8 7 6 6 5 4 4 4 3 3 2 1 0 0 0 0 1 1 1 2 2 3 4
10 7 6 3 3 3 3 4 6 8 9 11 11 12 12 12 12 11 11 10 8 8 7 6 6 5 5 4 4 4 3 2 2 2 1 1 1 1 1 2 2 3 3
10 7 4 2 2 2 3 4 5 7 8 9 11 11 12 12 12 12 12 11 9 8 7 7 7 7 6 6 5 4 4 4 4 3 2 2 2 2 2 2 3 4 5
9 7 4 1 1 2 4 4 5 6 8 9 10 11 12 12 12 12 12 12 11 9 9 8 8 8 7 7 6 6 6 6 5 5 4 3 3 3 3 4 4 5 5
8 5 2 0 1 2 4 4 6 6 8 9 10 12 12 13 12 12 12 12 11 11 10 9 9 9 9 8 8 8 8 7 7 6 6 5 5 5 5 5 5 6 6
6 4 3 1 1 2 3 5 6 7 8 9 10 11 12 12 12 13 13 13 12 11 11 11 10 10 10 10 9 9 9 9 9 9 8 8 7 7 7 8 8 8 8
5 4 3 2 1 2 3 4 5 7 8 9 10 11 12 12 12 14 14 14 13 13 12 12 11 11 11 11 11 10 11 11 11 11 11 10 10 9 10 10 10 10 11
Wind_Direction
77 101 131 148 147 142 153 171 173 174 300 324 329 334 340 345 347 349 347 346 352 6 23 39 53 64 83 90 89 93 97 102 102 106 104 99 100 98 100 103 100 98 98
65 92 118 164 169 166 182 195 207 230 280 312 319 319 326 333 336 332 332 332 340 347 353 9 35 57 73 88 96 101 107 111 115 112 105 102 102 106 108 104 102 99 102
44 70 115 169 203 209 214 216 232 260 273 294 310 311 314 320 319 317 316 324 330 326 329 339 2 37 76 100 104 105 117 121 119 113 109 107 107 108 106 106 107 102 105
24 17 183 212 225 229 227 229 245 264 268 279 296 308 307 305 305 305 303 310 315 311 312 315 328 14 116 126 109 109 121 128 122 113 110 114 114 112 111 113 117 112 108
22 10 265 224 229 234 234 234 240 253 259 264 282 297 300 299 301 301 298 300 303 298 300 307 306 290 182 143 130 124 124 127 126 125 115 117 120 121 123 118 123 119 113
11 355 288 245 234 237 237 240 244 249 251 256 270 282 285 280 290 295 292 294 294 295 301 308 312 286 182 164 154 142 128 126 126 128 123 128 122 126 135 129 127 128 122
1 334 282 252 247 246 242 244 242 247 248 251 259 268 273 278 283 290 287 289 292 293 298 296 303 272 206 182 163 160 134 140 141 136 133 142 137 134 138 141 132 134 134
353 334 296 264 252 251 245 241 238 236 236 242 248 256 262 271 284 289 289 288 285 286 288 283 274 262 222 186 151 176 155 171 157 152 148 156 154 149 144 138 139 135 138
357 342 322 283 260 248 245 238 234 231 230 238 242 247 256 263 273 281 286 280 282 286 282 271 253 236 220 205 152 182 196 167 187 187 170 163 159 156 150 148 145 145 148
352 344 321 294 266 247 239 234 231 230 229 232 235 240 248 252 255 263 268 271 278 283 281 275 250 225 203 193 172 213 185 161 199 200 187 176 169 163 160 159 155 153 157
346 337 326 299 275 246 235 233 232 230 230 230 230 235 237 241 246 250 258 262 265 275 276 275 260 202 179 199 203 190 171 168 177 182 189 177 171 169 171 173 168 164 165
342 332 323 305 281 256 241 232 229 228 226 225 226 231 232 240 246 242 250 251 257 268 269 263 249 225 163 188 212 198 173 171 179 167 162 172 176 178 177 180 181 178 178
335 330 321 310 285 261 250 236 226 224 223 222 224 227 228 232 239 237 239 241 242 250 254 244 227 218 196 188 211 214 189 177 174 155 156 187 194 191 189 187 186 188 191
331 325 316 307 290 262 248 241 227 221 219 221 223 227 227 229 235 230 232 231 229 241 248 246 227 201 195 186 202 213 212 207 191 188 194 201 197 200 203 200 195 193 190
332 324 315 305 294 266 254 242 227 221 220 219 219 223 227 224 224 221 220 217 222 229 237 245 236 219 193 174 187 209 220 211 228 222 216 215 211 208 209 206 202 201 203
333 324 314 301 285 271 251 236 223 216 212 212 215 221 220 219 217 214 213 211 209 213 221 221 210 196 164 159 173 185 209 203 220 213 219 216 212 212 212 210 208 209 210
335 324 313 298 280 262 247 239 223 209 208 207 211 213 210 210 208 205 210 206 200 200 204 199 191 178 163 158 157 165 171 173 197 196 194 192 202 212 219 220 219 219 220
336 328 316 292 259 256 249 239 219 203 204 207 206 204 205 206 203 201 204 199 196 196 195 194 190 183 165 158 158 160 160 184 198 215 194 183 200 219 226 229 231 229 233
341 338 322 290 266 273 258 226 213 200 203 204 202 202 203 202 201 198 199 198 197 197 197 193 188 176 166 165 164 158 160 172 168 178 164 182 226 238 241 236 233 230 236
341 342 330 294 285 279 252 217 204 202 202 202 204 204 206 205 203 199 198 201 201 201 201 196 194 191 182 179 176 174 182 204 205 277 271 276 268 266 258 244 231 233 238
339 342 335 285 271 258 243 210 198 197 199 201 204 203 206 206 205 203 203 205 206 206 207 205 204 202 200 198 197 197 201 215 232 249 257 259 274 285 281 262 246 247 252
336 334 330 283 271 232 215 202 198 197 199 202 203 203 206 207 207 207 208 208 209 211 212 212 216 217 215 212 214 220 222 223 233 241 246 247 256 274 275 273 265 266 265
339 338 337 296 232 227 210 204 202 203 206 207 205 207 207 206 205 208 211 211 214 216 217 217 219 223 224 225 228 233 236 236 239 238 239 243 251 263 272 274 273 273 274
345 348 6 335 236 219 215 212 214 216 212 211 211 211 212 210 211 211 211 212 215 217 220 223 224 225 229 232 235 238 240 242 242 239 242 247 254 257 269 277 276 280 283
357 5 18 11 240 230 230 226 224 224 219 217 215 212 211 213 215 217 218 220 219 222 227 232 233 231 234 238 242 244 243 244 244 245 246 250 258 262 266 271 275 282 284
354 0 352 332 266 240 238 230 223 223 222 219 216 217 215 215 219 221 224 226 226 232 237 239 239 237 239 242 245 247 249 248 247 247 251 258 264 267 268 272 274 278 280
Height
5893 5893 5894 5894 5895 5895 5896 5897 5897 5898 5899 5899 5899 5899 5900 5899 5899 5899 5899 5898 5898 5897 5897 5896 5896 5895 5895 5895 5895 5895 5894 5894 5894 5894 5893 5893 5893 5893 5893 5893 5893 5892 5892
5894 5894 5894 5895 5895 5896 5897 5897 5898 5899 5899 5900 5900 5900 5900 5900 5900 5899 5899 5899 5898 5898 5897 5897 5896 5896 5896 5895 5895 5895 5895 5895 5895 5895 5894 5894 5894 5894 5894 5894 5894 5893 5893
5894 5894 5894 5895 5895 5896 5897 5897 5898 5899 5900 5900 5900 5900 5900 5900 5900 5900 5900 5899 5899 5898 5898 5897 5897 5897 5896 5896 5896 5895 5895 5895 5895 5895 5895 5895 5895 5895 5895 5895 5895 5894 5895
5894 5894 5894 5895 5896 5896 5897 5898 5898 5899 5900 5900 5900 5901 5901 5901 5901 5901 5900 5900 5899 5899 5898 5898 5897 5897 5897 5896 5896 5896 5895 5895 5895 5895 5895 5895 5895 5895 5896 5896 5896 5896 5896
5894 5894 5894 5895 5895 5896 5897 5897 5898 5899 5899 5900 5900 5901 5901 5901 5901 5901 5901 5900 5900 5899 5899 5898 5898 5897 5897 5896 5896 5896 5896 5896 5896 5896 5896 5896 5896 5896 5896 5896 5897 5897 5897
5894 5894 5894 5894 5895 5896 5896 5897 5898 5898 5899 5900 5900 5901 5901 5901 5901 5901 5901 5900 5900 5899 5899 5898 5898 5897 5897 5896 5896 5896 5896 5896 5896 5896 5896 5897 5897 5897 5897 5897 5897 5898 5898
5894 5894 5894 5894 5894 5895 5895 5896 5897 5898 5898 5899 5900 5901 5901 5901 5901 5901 5901 5900 5900 5899 5899 5898 5898 5898 5897 5897 5896 5896 5897 5897 5897 5897 5897 5897 5897 5897 5897 5898 5898 5898 5899
5893 5893 5893 5893 5893 5894 5894 5895 5896 5896 5897 5898 5899 5900 5901 5901 5901 5901 5901 5900 5900 5899 5899 5898 5898 5898 5898 5897 5897 5897 5897 5897 5897 5897 5897 5897 5897 5898 5898 5898 5898 5899 5899
5893 5892 5892 5892 5892 5892 5893 5894 5894 5895 5896 5897 5898 5899 5900 5900 5901 5901 5900 5900 5900 5899 5899 5899 5898 5898 5898 5898 5898 5897 5897 5897 5897 5897 5897 5897 5897 5898 5898 5898 5899 5899 5899
5892 5891 5891 5890 5891 5891 5892 5892 5893 5894 5895 5896 5897 5898 5899 5899 5900 5900 5900 5900 5899 5899 5899 5899 5899 5898 5898 5898 5898 5897 5897 5897 5897 5897 5897 5897 5897 5898 5898 5899 5899 5899 5900
5891 5890 5889 5889 5889 5890 5890 5891 5892 5893 5894 5895 5896 5897 5897 5898 5899 5899 5899 5899 5899 5899 5899 5899 5899 5899 5899 5898 5898 5897 5897 5897 5897 5897 5897 5897 5898 5898 5898 5899 5899 5899 5900
5890 5889 5888 5888 5888 5888 5889 5889 5890 5891 5892 5893 5894 5895 5896 5897 5898 5898 5899 5899 5899 5899 5899 5899 5899 5899 5899 5898 5898 5897 5897 5897 5897 5897 5897 5897 5898 5898 5898 5899 5899 5899 5900
5889 5888 5887 5886 5886 5886 5886 5887 5888 5889 5890 5891 5893 5894 5895 5896 5897 5898 5898 5898 5898 5898 5899 5899 5899 5899 5899 5898 5898 5898 5897 5897 5897 5897 5897 5897 5898 5898 5898 5899 5899 5899 5900
5887 5885 5884 5884 5883 5884 5884 5885 5886 5887 5888 5889 5891 5892 5893 5895 5896 5897 5897 5898 5898 5898 5898 5898 5898 5899 5898 5898 5898 5897 5897 5898 5898 5898 5897 5898 5898 5898 5898 5899 5899 5899 5899
5885 5883 5882 5881 5881 5881 5882 5882 5883 5885 5886 5888 5889 5891 5892 5894 5895 5896 5897 5897 5897 5898 5898 5898 5898 5898 5898 5898 5898 5897 5897 5898 5898 5898 5898 5898 5897 5898 5898 5898 5899 5899 5899
5883 5880 5879 5879 5879 5879 5879 5880 5881 5883 5885 5886 5888 5889 5891 5892 5893 5895 5896 5896 5897 5897 5897 5897 5898 5898 5898 5898 5898 5898 5898 5898 5898 5898 5898 5897 5897 5897 5898 5898 5898 5898 5899
5880 5877 5876 5876 5876 5876 5877 5878 5879 5881 5883 5885 5886 5888 5889 5891 5892 5894 5895 5896 5896 5897 5897 5897 5898 5898 5898 5898 5898 5898 5898 5898 5898 5898 5897 5897 5897 5897 5897 5897 5898 5898 5898
5877 5875 5874 5873 5873 5875 5876 5876 5877 5879 5881 5883 5885 5886 5888 5890 5891 5893 5894 5895 5896 5896 5897 5897 5898 5898 5898 5898 5899 5898 5898 5898 5898 5898 5898 5897 5897 5897 5897 5897 5897 5897 5897
5874 5873 5872 5872 5872 5873 5874 5874 5875 5877 5880 5882 5884 5885 5887 5888 5890 5892 5893 5894 5895 5896 5896 5897 5898 5898 5898 5898 5899 5899 5899 5898 5898 5898 5898 5897 5897 5897 5897 5897 5897 5897 5897
5873 5871 5870 5871 5871 5872 5873 5874 5874 5876 5878 5880 5882 5884 5885 5887 5889 5890 5892 5893 5894 5895 5896 5896 5897 5897 5898 5898 5899 5899 5899 5899 5898 5898 5898 5897 5897 5897 5897 5896 5896 5896 5896
5872 5871 5870 5870 5870 5870 5871 5873 5874 5875 5876 5878 5880 5882 5884 5885 5887 5889 5890 5892 5893 5894 5895 5896 5896 5897 5897 5898 5898 5899 5899 5899 5898 5898 5898 5897 5897 5897 5896 5896 5896 5895 5895
5872 5870 5869 5869 5869 5870 5871 5872 5873 5874 5876 5877 5879 5880 5882 5884 5885 5887 5889 5890 5892 5893 5893 5894 5895 5896 5897 5897 5898 5898 5898 5899 5898 5898 5897 5897 5897 5896 5896 5895 5895 5895 5894
5871 5870 5869 5869 5869 5869 5870 5871 5872 5874 5875 5876 5877 5879 5881 5882 5884 5885 5887 5888 5890 5891 5892 5893 5894 5895 5895 5896 5897 5897 5897 5897 5897 5897 5897 5897 5896 5896 5895 5895 5894 5894 5893
5871 5869 5869 5868 5869 5869 5870 5871 5872 5873 5874 5875 5876 5877 5879 5881 5882 5884 5885 5887 5888 5889 5890 5891 5892 5893 5894 5895 5895 5896 5896 5896 5896 5896 5896 5896 5895 5895 5894 5894 5893 5892 5892
5870 5869 5868 5868 5868 5869 5869 5870 5871 5872 5873 5874 5874 5876 5877 5879 5881 5882 5883 5885 5886 5887 5888 5889 5890 5891 5892 5893 5893 5894 5894 5894 5895 5895 5895 5894 5894 5894 5893 5892 5891 5890 5890
5870 5869 5869 5868 5868 5868 5869 5869 5870 5870 5871 5872 5874 5875 5876 5877 5879 5880 5881 5883 5884 5885 5886 5887 5888 5889 5890 5890 5891 5891 5892 5892 5893 5893 5892 5892 5892 5892 5891 5890 5889 5888 5887